User: anonymous   Login
Location: La Comballaz
(46.3780°N, 7.0817°E)
Time: 11:50:39
(UTC+00:00)
Language:

SL-16 R/B - Orbit

View from above orbital plane
View from above orbital plane
View from above satellite
View from above satellite

Ground track
Ground track

The orbit data is extracted from the following two-line orbital elements,

1 31793U 07029B   20191.12907713 -.00000095  00000-0 -24800-4 0  9998
2 31793  70.9748 200.8280 0002854 270.1142 156.8630 14.14436403672796
Epoch (UTC): 09 July 2020 03:05:52
Eccentricity: 0.0002854
inclination: 70.9748°
perigee height: 842 km
apogee height: 846 km
right ascension of ascending node: 200.8280°
argument of perigee: 270.1142°
revolutions per day: 14.14436403
mean anomaly at epoch: 156.8630°
orbit number at epoch: 67279

The dashed part of the orbit path shows where the satellite is in the earth's shadow,  

DLR